GFSMA_sfc_temp_132.txt.gz
Temp
91 94 91 95 95 97 96 96 96 96 95 96 97 96 98 97 98 100 98 82 81 81 82 83 83 83 83 83 83 83 83 83 83 83 83 82 82 82 82 82 82 82 81
92 93 93 95 95 97 98 97 95 97 98 98 95 97 97 97 96 97 100 93 82 81 82 82 83 83 84 84 84 83 83 83 83 83 83 82 82 82 82 82 81 81 81
90 91 93 95 96 95 93 95 95 97 98 99 95 96 97 96 97 95 99 101 95 82 83 82 83 82 83 83 84 84 83 82 83 83 83 82 82 82 81 81 81 81 80
90 91 94 95 95 97 98 98 98 97 97 98 96 98 97 98 96 96 99 101 102 103 87 83 82 82 82 84 84 84 83 82 83 83 83 83 82 82 81 81 80 80 80
90 94 95 94 95 98 97 99 97 97 95 97 98 98 99 99 98 102 98 99 101 100 101 86 82 81 82 84 83 83 83 84 84 83 83 83 82 81 81 80 80 79 79
91 91 94 93 96 98 96 96 93 96 98 98 102 99 100 100 101 102 102 103 102 99 102 97 97 97 83 82 82 82 84 83 83 83 82 82 81 81 81 80 80 79 79
89 89 95 93 95 95 91 92 93 91 95 96 95 96 97 98 98 100 102 102 101 101 100 99 98 97 98 84 83 83 83 83 83 82 82 81 81 80 80 80 79 79 79
90 91 90 93 91 95 91 91 91 95 96 97 95 96 90 94 99 102 102 101 99 101 102 100 98 95 97 100 91 84 82 80 82 82 82 81 80 80 80 79 79 79 78
91 89 90 89 91 91 95 93 93 90 94 95 91 92 90 90 95 99 97 102 98 100 100 100 99 97 96 99 95 91 80 78 80 82 82 81 80 80 80 80 80 79 78
90 90 90 89 89 93 91 93 96 91 90 93 95 98 91 90 91 92 97 100 99 100 97 99 101 100 98 100 93 80 78 77 78 80 80 80 80 80 81 81 81 80 78
90 91 89 88 88 91 91 90 90 89 94 92 95 95 92 96 93 91 91 96 99 100 100 99 100 101 99 99 100 85 77 76 76 76 77 77 78 79 80 82 82 81 80
91 89 90 89 89 89 89 91 89 88 89 90 93 91 93 92 94 92 91 92 91 96 100 100 99 99 99 100 89 79 76 75 74 73 73 74 75 77 78 81 82 81 80
93 90 88 88 90 88 89 90 88 89 89 91 88 94 95 95 95 94 92 93 91 95 96 100 101 100 99 99 94 82 75 73 72 71 71 72 73 75 77 78 78 78 78
93 92 90 90 90 89 89 89 91 92 91 91 89 89 95 96 96 95 93 91 89 92 94 90 100 100 99 96 88 81 87 72 70 69 69 69 70 71 72 73 73 74 74
94 91 90 89 90 90 89 89 91 89 90 89 91 89 91 96 96 96 95 94 89 86 89 91 94 95 97 100 85 93 85 70 69 68 67 67 68 68 69 69 69 70 70
88 89 88 89 89 89 89 88 91 89 88 91 93 90 89 95 94 95 95 95 93 90 86 96 96 94 94 96 89 90 85 77 69 67 66 66 66 66 66 66 66 67 67
88 88 88 88 87 88 88 87 87 89 88 88 89 89 88 89 92 95 95 94 93 92 88 93 96 93 89 88 91 93 81 87 78 67 66 65 64 64 64 64 64 64 64
88 87 87 87 88 88 87 87 87 89 86 87 88 88 88 93 87 88 92 88 91 90 89 84 89 92 87 89 89 88 93 86 83 68 66 65 64 63 62 62 61 61 60
87 88 86 85 86 86 87 87 87 87 88 88 89 88 88 88 87 89 88 90 92 91 86 83 86 91 92 93 84 85 87 84 86 68 66 65 65 64 62 61 60 59 58
87 87 88 87 87 88 87 87 87 87 87 89 89 88 88 88 87 85 85 85 88 86 83 85 84 90 87 87 86 82 83 90 85 88 74 75 71 65 64 62 61 60 58
87 87 87 87 87 88 90 87 87 86 86 87 88 87 88 83 72 74 84 85 83 81 81 80 83 83 80 87 84 81 79 84 82 87 87 86 84 81 75 68 66 60 58
85 85 84 85 85 89 69 70 76 87 85 83 84 86 86 74 73 68 68 66 72 79 74 73 78 73 79 82 87 81 78 75 78 83 83 84 84 79 75 71 59 59 58
85 84 85 85 85 86 66 66 68 84 86 84 84 83 84 87 77 78 66 66 67 67 68 81 76 79 74 74 80 78 80 82 80 81 79 80 84 78 78 71 60 59 58
82 83 84 84 83 82 64 63 65 79 84 85 84 82 81 81 81 81 81 74 71 70 75 87 80 78 77 78 80 82 79 75 78 80 77 80 80 81 79 72 60 59 58
76 79 81 81 81 81 63 60 65 79 82 79 80 82 80 80 66 66 77 69 64 64 61 60 60 60 61 62 67 84 82 81 82 79 75 78 79 79 80 79 72 60 59
66 66 72 77 64 77 59 58 62 77 76 79 75 73 59 71 60 62 74 73 64 66 71 73 73 71 71 68 66 73 79 80 81 77 71 74 78 77 76 78 78 77 76

GFSMA_sfc_temp_135.txt.gz
Temp
89 91 94 92 94 98 98 96 97 97 96 97 99 99 100 100 101 100 95 83 83 82 83 83 84 84 84 84 84 84 84 83 83 83 83 83 83 82 82 82 82 82 82
84 94 94 95 96 97 99 97 95 98 98 98 97 98 99 99 98 100 98 92 83 83 83 84 84 84 84 84 84 84 83 83 83 83 83 83 83 82 82 82 82 82 81
92 93 94 79 97 95 95 95 96 98 99 100 96 98 99 98 98 97 101 101 92 83 84 84 84 83 83 83 84 84 83 82 83 83 83 83 83 82 82 82 81 81 80
92 91 94 94 97 98 99 98 98 98 98 98 97 99 99 99 97 98 101 101 101 102 86 84 84 83 83 84 84 83 83 83 84 84 84 83 83 82 82 81 81 80 80
92 91 93 94 94 98 98 95 99 98 97 98 99 99 100 99 98 102 99 99 101 100 101 83 83 81 84 85 83 83 83 84 84 83 83 83 82 82 81 81 80 80 79
93 92 95 94 92 93 97 93 95 98 98 98 103 100 100 101 101 101 101 103 102 100 103 99 97 95 84 84 83 84 84 84 83 83 82 82 81 81 81 80 80 80 79
92 91 92 93 80 89 91 93 94 92 97 97 96 97 97 99 99 100 102 103 102 102 101 100 100 98 93 85 84 85 84 83 83 82 82 81 80 80 80 80 80 80 79
91 93 90 93 87 90 92 92 92 94 97 97 92 95 90 94 99 102 102 102 100 102 102 101 99 96 98 97 93 86 81 80 82 83 82 80 80 80 80 80 80 79 79
92 91 91 90 91 88 92 93 93 91 85 96 93 91 87 79 94 99 98 101 98 100 100 100 100 98 97 98 94 87 79 78 80 81 81 80 79 79 80 80 80 79 78
92 93 92 91 90 91 78 92 95 91 91 88 95 99 93 90 88 75 86 99 99 102 99 99 102 100 99 99 86 78 77 77 78 79 79 79 79 79 80 81 81 79 78
92 93 92 91 90 92 91 91 91 90 93 92 96 95 93 96 95 91 88 80 100 100 100 100 100 101 100 98 96 82 77 75 75 75 76 77 78 79 81 82 81 80 79
92 91 92 91 90 91 90 92 91 90 89 90 92 92 94 93 94 93 91 91 90 96 99 99 98 99 99 93 87 76 74 73 72 72 73 74 77 79 81 81 80 80 79
94 90 90 89 91 89 91 91 90 90 90 90 89 93 96 95 96 95 93 91 92 94 96 100 93 97 98 99 92 82 73 71 70 69 70 71 73 74 75 76 77 77 77
94 89 90 91 90 92 90 90 92 92 92 92 90 89 94 96 96 96 93 91 88 85 70 71 95 101 92 98 86 81 79 69 68 68 68 69 69 70 71 71 72 72 73
86 92 92 91 91 91 91 90 91 91 91 91 91 90 91 95 98 97 96 95 90 85 87 82 94 97 91 78 89 87 79 68 68 67 66 67 67 67 68 68 68 68 69
91 84 87 90 91 91 91 89 91 91 90 92 94 91 91 93 95 96 96 96 94 90 86 94 96 96 94 97 87 86 78 72 67 66 65 65 66 66 66 66 66 66 67
89 89 89 89 89 89 90 87 88 87 84 89 89 89 90 90 92 94 96 96 94 94 89 93 95 91 89 89 90 84 86 80 72 66 65 64 64 63 63 63 63 63 64
88 88 89 88 89 89 89 87 87 90 87 88 88 89 89 93 89 88 92 88 90 90 88 84 89 90 88 89 90 84 88 86 77 67 65 64 63 62 62 61 60 60 60
86 89 88 87 87 88 87 87 86 86 88 89 90 89 89 89 87 90 88 89 87 84 87 87 85 88 80 82 85 86 82 79 83 68 65 65 64 63 62 60 59 58 57
87 88 87 86 85 88 89 89 87 86 88 90 90 90 88 83 88 87 85 84 88 87 86 84 84 81 75 89 83 80 81 83 82 85 75 73 69 65 64 61 61 59 57
89 89 89 87 86 88 91 86 87 85 85 87 89 90 90 85 72 76 84 81 82 81 78 78 77 74 74 77 74 77 80 82 81 84 83 76 76 79 72 66 65 60 58
87 87 87 88 85 91 72 77 79 86 85 83 84 86 86 76 75 69 70 68 72 79 79 82 81 77 76 73 74 74 74 77 77 84 82 84 85 77 73 68 59 59 58
83 83 85 86 85 85 68 69 71 86 87 87 85 82 83 84 78 84 67 67 68 68 69 76 77 80 80 80 79 77 77 77 79 82 80 82 84 78 75 67 60 59 58
81 76 82 84 84 83 66 66 67 80 83 86 87 86 84 83 82 81 80 81 75 72 70 75 73 70 77 78 80 82 79 77 79 80 77 77 81 80 78 69 61 60 59
80 80 75 77 81 79 63 62 66 81 84 83 83 82 76 81 70 69 82 77 70 70 63 61 61 62 62 63 68 82 78 80 78 78 76 75 79 78 80 72 67 60 59
78 76 75 78 65 72 59 58 65 79 82 80 76 77 59 63 62 64 77 75 69 67 69 65 69 63 68 66 66 70 74 76 80 78 66 72 77 76 75 79 76 66 68

GFSMA_sfc_temp_138.txt.gz
Temp
84 87 84 81 83 86 87 84 87 88 89 91 92 92 92 92 90 88 83 82 82 83 83 84 84 84 84 84 83 83 83 83 83 83 83 83 83 82 82 82 82 81 81
82 86 86 83 83 87 84 86 82 86 87 90 90 91 91 91 90 87 86 81 82 82 83 84 84 84 84 84 83 83 82 83 83 83 83 83 83 82 82 82 81 81 80
79 86 76 84 86 87 88 88 88 90 88 91 88 90 89 90 90 90 88 87 83 83 83 83 84 84 83 84 84 83 83 83 83 83 83 83 83 82 82 81 81 81 80
89 82 82 81 84 87 86 85 86 86 86 86 85 87 87 89 89 90 90 90 86 90 82 83 83 84 84 84 84 83 83 83 83 83 83 82 82 82 81 81 80 80 79
89 87 81 87 89 86 83 87 88 88 86 86 88 88 88 87 88 95 91 91 91 90 86 82 82 81 82 85 84 84 84 83 82 82 82 81 81 81 81 80 80 80 79
91 80 81 87 76 75 83 83 85 87 86 86 96 92 89 88 88 88 91 95 91 92 92 89 85 79 81 85 84 84 84 83 82 82 81 80 80 80 80 80 80 79 79
85 80 80 76 69 68 71 87 87 86 85 87 83 85 87 90 90 88 90 91 92 94 92 91 88 86 83 83 83 84 83 82 82 82 81 80 80 79 80 79 80 79 78
89 87 83 74 70 68 71 88 86 83 85 87 82 81 78 81 86 88 85 88 91 92 93 92 90 89 84 76 79 81 80 80 81 81 81 79 79 78 79 80 79 78 78
88 88 86 82 76 72 70 81 84 74 74 84 87 81 76 66 70 73 71 71 73 88 88 90 92 90 87 82 83 80 77 77 79 79 79 79 78 78 79 80 78 78 77
88 88 88 85 71 71 70 74 81 68 70 76 84 89 83 70 66 61 68 70 74 74 89 87 90 91 86 83 80 76 76 75 76 77 78 79 79 79 81 79 78 78 77
86 89 88 85 81 75 74 72 83 80 79 78 82 82 83 81 77 66 65 65 70 75 87 88 90 89 88 85 79 75 75 74 73 74 75 77 79 80 81 80 79 78 78
86 87 88 86 85 85 84 84 85 85 84 82 83 83 82 80 80 80 77 73 70 78 70 71 70 81 85 79 78 75 73 72 71 72 72 74 75 76 78 78 78 78 77
85 84 86 85 86 86 86 86 84 84 85 83 83 83 84 84 84 83 81 80 77 69 69 70 72 73 84 82 76 74 71 70 69 69 69 70 71 72 72 73 74 74 75
81 84 85 86 86 86 86 85 84 84 84 84 84 85 81 84 86 85 83 80 76 70 67 69 72 75 81 81 77 75 70 68 68 67 67 68 68 69 70 70 70 70 71
85 85 85 85 86 86 84 85 84 83 83 85 84 84 84 83 84 86 85 84 80 74 75 77 74 83 80 79 79 74 69 68 67 67 66 67 67 67 67 68 68 67 68
83 79 82 79 87 86 83 84 84 84 83 84 85 83 81 84 84 84 84 84 83 80 75 81 81 84 85 85 78 72 69 68 67 66 65 65 65 65 65 65 65 65 66
84 83 79 76 83 84 84 83 83 83 82 82 83 83 82 83 83 83 83 82 81 80 77 79 82 82 82 80 75 74 73 68 66 66 65 64 63 63 63 63 63 63 63
83 85 82 81 82 84 84 83 82 83 82 81 81 82 83 88 82 83 81 80 80 81 79 76 80 81 80 81 75 76 79 76 67 66 65 64 63 62 61 60 60 60 60
83 85 85 83 83 83 83 84 83 82 82 83 81 80 81 81 80 82 81 81 81 81 78 77 76 80 75 76 75 77 73 69 73 66 64 64 63 62 61 60 59 58 57
80 80 83 84 83 84 83 83 82 81 81 82 81 82 82 82 80 81 80 79 81 77 77 76 76 74 74 73 70 72 69 72 68 76 72 66 65 64 63 61 61 59 57
81 82 81 81 82 81 85 81 81 81 80 80 81 82 83 79 74 75 79 79 78 76 75 74 73 73 73 73 71 72 70 72 72 73 68 65 63 65 63 62 62 60 59
83 83 82 82 80 84 72 74 79 80 79 78 78 79 80 76 72 71 70 69 72 76 75 75 75 73 74 74 74 72 72 70 68 76 72 69 70 64 62 58 61 60 59
81 81 81 79 80 82 70 73 74 81 80 80 80 79 80 83 74 74 67 68 67 67 68 71 73 73 74 74 74 74 73 72 70 72 71 70 69 62 62 60 60 60 59
79 77 77 78 78 78 66 69 70 80 78 79 79 81 80 80 80 78 74 74 73 67 65 75 69 66 65 66 68 72 72 70 70 68 69 67 70 64 63 59 61 60 59
78 79 78 77 76 72 64 63 65 78 77 77 78 70 72 72 68 66 75 72 70 66 63 61 62 62 62 62 64 71 69 70 67 67 64 65 67 67 64 59 60 61 59
76 76 77 76 67 65 59 60 64 73 76 75 76 64 59 62 62 61 73 72 67 66 68 68 67 62 62 63 63 63 63 62 64 62 60 62 65 66 63 62 61 58 57

GFSMA_sfc_temp_141.txt.gz
Temp
80 78 76 76 76 78 78 78 78 80 82 83 82 83 83 80 78 78 75 82 81 82 83 84 84 83 83 83 83 83 83 83 82 83 83 83 82 82 82 81 81 81 80
76 76 80 79 78 78 80 79 80 80 81 83 83 85 83 82 80 79 78 77 82 82 82 83 84 84 84 84 83 83 83 82 83 83 82 82 82 82 82 81 81 81 80
75 77 75 77 79 82 82 80 80 81 79 83 82 83 84 83 83 81 80 78 78 82 82 83 83 83 83 84 84 83 82 82 82 82 82 82 81 81 81 81 80 80 79
79 76 77 73 77 79 80 79 80 79 78 80 80 79 81 83 85 83 82 82 80 81 79 83 83 83 84 84 84 83 83 82 82 81 81 81 81 80 80 80 80 80 79
82 73 73 69 73 73 74 80 78 78 77 78 80 79 80 80 83 89 85 85 82 77 76 80 82 82 83 84 83 84 83 82 81 81 80 80 80 80 80 80 80 79 78
75 74 73 69 71 72 69 71 75 81 79 82 91 86 80 80 80 80 78 84 80 85 81 83 76 77 80 82 80 82 82 82 81 81 80 79 79 79 79 79 79 78 78
76 73 72 69 68 68 67 70 71 78 81 82 79 77 78 80 77 73 73 77 77 77 85 85 81 76 76 80 78 81 81 82 81 80 79 78 78 78 79 79 78 78 77
78 78 71 69 68 67 69 69 73 76 74 79 76 73 71 74 74 75 72 72 71 75 77 82 84 79 76 73 78 80 78 79 80 80 79 78 78 78 78 78 77 77 77
80 80 74 73 71 70 70 68 71 72 69 73 77 71 67 62 64 69 68 68 69 69 72 74 78 77 77 76 79 77 76 76 78 79 80 80 78 79 78 77 77 76 76
81 82 76 73 71 68 68 69 73 68 67 69 75 81 73 67 63 64 67 68 70 73 72 71 71 77 77 75 77 76 75 75 76 77 78 79 80 79 79 78 77 76 76
80 84 78 73 75 71 71 73 75 73 72 70 72 73 70 67 67 67 63 66 68 69 70 70 69 74 79 76 71 74 74 73 74 75 76 77 78 79 79 78 78 77 77
78 80 81 78 75 74 74 74 75 78 73 72 74 75 73 75 66 67 66 64 65 68 69 69 73 73 75 73 76 74 73 72 71 72 73 74 74 75 76 76 76 76 76
75 77 78 78 77 77 78 77 77 77 77 75 76 76 76 75 75 75 73 70 66 67 67 69 71 73 77 71 71 72 71 70 69 69 70 71 72 72 72 73 73 74 74
77 79 78 77 78 78 78 78 76 77 77 77 77 76 75 77 77 77 76 74 69 66 66 70 70 72 76 72 71 71 68 68 68 67 68 69 69 70 70 70 70 71 71
80 79 79 78 78 79 78 78 77 76 76 76 78 77 76 77 78 78 78 77 74 69 69 71 71 73 76 74 71 67 66 68 68 67 67 67 67 67 67 67 67 67 68
78 76 75 77 78 78 78 76 77 76 76 76 78 76 75 77 76 75 75 73 76 73 69 73 71 78 74 73 71 67 67 67 67 66 66 65 66 66 66 66 65 65 66
76 75 75 74 76 76 77 76 76 76 76 75 76 76 76 76 78 75 76 74 75 74 71 71 74 74 71 69 68 67 66 63 64 66 65 64 64 64 64 63 63 63 63
76 76 75 74 75 76 76 76 76 78 75 75 75 75 75 81 76 76 75 74 73 72 72 70 72 72 71 68 67 65 71 69 64 66 64 63 62 62 61 60 60 60 60
76 76 75 75 75 76 76 76 76 76 76 76 76 74 76 76 74 75 75 74 74 75 73 71 71 71 70 71 70 67 66 64 68 66 64 63 62 62 60 59 59 58 57
75 75 76 76 76 76 76 76 76 76 75 76 76 76 76 75 76 75 75 74 74 72 72 71 70 69 70 70 68 67 63 64 62 69 67 64 63 63 62 60 60 59 57
75 75 75 75 76 77 78 75 76 75 75 75 75 76 76 74 72 71 74 73 72 71 70 70 69 69 69 69 68 68 65 64 63 67 64 62 63 59 58 61 63 61 59
74 75 75 75 75 79 75 74 73 73 75 75 73 74 75 73 71 70 70 69 71 71 70 70 68 68 68 69 70 69 68 66 63 68 62 61 63 57 56 54 62 61 59
74 74 75 75 75 75 70 72 74 74 74 74 74 74 75 78 73 69 67 67 67 67 68 68 68 67 69 67 69 70 69 68 67 69 67 64 62 58 57 59 61 60 59
73 73 73 73 73 71 67 68 70 71 73 73 73 73 73 73 71 72 68 67 63 61 61 67 63 60 61 62 66 68 70 66 66 62 65 64 61 58 58 55 61 61 60
70 71 71 71 72 67 64 64 66 69 71 71 68 63 67 66 64 66 69 64 60 58 62 61 61 61 61 62 62 65 62 64 63 63 62 66 66 60 60 58 57 61 59
69 69 66 65 64 63 59 59 60 67 68 69 61 59 60 61 60 62 67 63 58 59 63 58 58 59 61 61 62 62 63 63 64 59 61 62 64 64 59 61 56 56 56